Hourly Weather Artashat

Today, 1 October, Thursday

Time Temperature Precipitation Wind Pressure Humidity
00:00 +11°C° 0 mm 0 mps 601 mmHg 52%
01:00 +11°C° 0 mm 0 mps 601 mmHg 53%
02:00 +11°C° 0 mm 1 mps 601 mmHg 54%
03:00 +11°C° 0 mm 1 mps 600 mmHg 55%
04:00 +11°C° 0 mm 1 mps 600 mmHg 57%
05:00 +10°C° 0 mm 1 mps 600 mmHg 60%
06:00 +10°C° 0 mm 1 mps 600 mmHg 62%
07:00 +11°C° 0 mm 1 mps 601 mmHg 56%
08:00 +13°C° 0 mm 1 mps 602 mmHg 49%
09:00 +15°C° 0 mm 2 mps 602 mmHg 43%
10:00 +16°C° 0 mm 2 mps 603 mmHg 40%
11:00 +17°C° 0 mm 2 mps 603 mmHg 37%
12:00 +19°C° 0 mm 3 mps 603 mmHg 34%
13:00 +19°C° 0 mm 3 mps 603 mmHg 32%
14:00 +20°C° 0 mm 3 mps 603 mmHg 29%
15:00 +21°C° 0 mm 4 mps 603 mmHg 27%
16:00 +20°C° 0 mm 3 mps 603 mmHg 28%
17:00 +19°C° 0 mm 3 mps 603 mmHg 30%
18:00 +17°C° 0 mm 3 mps 603 mmHg 31%
19:00 +17°C° 0 mm 3 mps 603 mmHg 33%
20:00 +16°C° 0 mm 2 mps 603 mmHg 34%
21:00 +15°C° 0 mm 2 mps 603 mmHg 36%
22:00 +14°C° 0 mm 2 mps 603 mmHg 39%
23:00 +13°C° 0 mm 1 mps 602 mmHg 43%

Tomorrow, 2 October, Friday

Time Temperature Precipitation Wind Pressure Humidity
00:00 +13°C° 0 mm 1 mps 602 mmHg 46%
01:00 +12°C° 0 mm 1 mps 602 mmHg 48%
02:00 +12°C° 0 mm 1 mps 602 mmHg 49%
03:00 +12°C° 0 mm 1 mps 602 mmHg 51%
04:00 +11°C° 0 mm 1 mps 602 mmHg 53%
05:00 +11°C° 0 mm 1 mps 602 mmHg 55%
06:00 +11°C° 0 mm 1 mps 602 mmHg 58%
07:00 +13°C° 0 mm 1 mps 603 mmHg 52%
08:00 +15°C° 0 mm 1 mps 604 mmHg 45%
09:00 +18°C° 0 mm 1 mps 605 mmHg 39%
10:00 +19°C° 0 mm 3 mps 605 mmHg 35%
11:00 +20°C° 0 mm 4 mps 605 mmHg 31%
12:00 +21°C° 0 mm 5 mps 606 mmHg 26%
13:00 +21°C° 0 mm 6 mps 605 mmHg 27%
14:00 +21°C° 0 mm 6 mps 605 mmHg 27%
15:00 +22°C° 0 mm 7 mps 605 mmHg 28%
16:00 +20°C° 0.3 mm 6 mps 604 mmHg 33%
17:00 +18°C° 0.3 mm 4 mps 604 mmHg 39%
18:00 +16°C° 0.3 mm 3 mps 603 mmHg 44%
19:00 +15°C° 0.5 mm 2 mps 603 mmHg 48%
20:00 +15°C° 0.5 mm 2 mps 603 mmHg 52%
21:00 +14°C° 0.5 mm 2 mps 603 mmHg 55%
22:00 +13°C° 0 mm 1 mps 603 mmHg 59%
23:00 +12°C° 0 mm 1 mps 603 mmHg 62%

Day after tomorrow, 3 October, Saturday

Time Temperature Precipitation Wind Pressure Humidity
00:00 +11°C° 0 mm 0 mps 603 mmHg 65%
01:00 +10°C° 0 mm 0 mps 602 mmHg 67%
02:00 +10°C° 0 mm 0 mps 602 mmHg 69%
03:00 +9°C° 0 mm 0 mps 602 mmHg 71%
04:00 +9°C° 0 mm 0 mps 602 mmHg 72%
05:00 +9°C° 0 mm 0 mps 602 mmHg 73%
06:00 +9°C° 0 mm 0 mps 602 mmHg 74%
07:00 +10°C° 0 mm 0 mps 603 mmHg 66%
08:00 +13°C° 0 mm 1 mps 604 mmHg 59%
09:00 +15°C° 0 mm 1 mps 605 mmHg 52%
10:00 +16°C° 0 mm 1 mps 605 mmHg 48%
11:00 +17°C° 0 mm 2 mps 605 mmHg 44%
12:00 +18°C° 0 mm 2 mps 605 mmHg 39%
13:00 +19°C° 0 mm 2 mps 605 mmHg 38%
14:00 +19°C° 0 mm 3 mps 605 mmHg 36%
15:00 +19°C° 0 mm 3 mps 605 mmHg 35%
16:00 +18°C° 0 mm 2 mps 604 mmHg 38%
17:00 +17°C° 0 mm 2 mps 604 mmHg 41%
18:00 +16°C° 0 mm 1 mps 604 mmHg 45%
19:00 +15°C° 0 mm 1 mps 604 mmHg 47%
20:00 +14°C° 0 mm 1 mps 604 mmHg 48%
21:00 +13°C° 0 mm 0 mps 604 mmHg 50%
22:00 +12°C° 0 mm 0 mps 604 mmHg 53%
23:00 +12°C° 0 mm 1 mps 604 mmHg 56%

4 October, Sunday

Time Temperature Precipitation Wind Pressure Humidity
00:00 +12°C° 0 mm 1 mps 603 mmHg 59%
01:00 +11°C° 0 mm 1 mps 603 mmHg 63%
02:00 +11°C° 0 mm 1 mps 603 mmHg 66%
03:00 +9°C° 0 mm 0 mps 603 mmHg 70%
04:00 +9°C° 0 mm 0 mps 603 mmHg 72%
05:00 +8°C° 0 mm 0 mps 603 mmHg 75%
06:00 +8°C° 0 mm 0 mps 603 mmHg 77%
07:00 +10°C° 0 mm 1 mps 603 mmHg 70%
08:00 +12°C° 0 mm 1 mps 604 mmHg 64%
09:00 +13°C° 0 mm 2 mps 605 mmHg 58%
10:00 +14°C° 0.2 mm 2 mps 605 mmHg 54%
11:00 +15°C° 0.2 mm 2 mps 605 mmHg 50%
12:00 +16°C° 0.2 mm 3 mps 605 mmHg 47%
13:00 +17°C° 0.1 mm 3 mps 605 mmHg 45%
14:00 +17°C° 0.1 mm 3 mps 604 mmHg 44%
15:00 +18°C° 0.1 mm 3 mps 604 mmHg 42%
16:00 +17°C° 0.3 mm 2 mps 604 mmHg 46%
17:00 +16°C° 0.3 mm 2 mps 604 mmHg 50%
18:00 +15°C° 0.3 mm 1 mps 603 mmHg 54%
19:00 +14°C° 0.1 mm 1 mps 603 mmHg 56%
20:00 +13°C° 0.1 mm 1 mps 603 mmHg 59%
21:00 +12°C° 0.1 mm 0 mps 604 mmHg 62%
22:00 +11°C° 0.3 mm 0 mps 603 mmHg 64%
23:00 +12°C° 0.3 mm 1 mps 603 mmHg 67%

5 October, Monday

Time Temperature Precipitation Wind Pressure Humidity
00:00 +11°C° 0.3 mm 1 mps 603 mmHg 69%
01:00 +10°C° 0.2 mm 0 mps 602 mmHg 72%
02:00 +9°C° 0.2 mm 0 mps 602 mmHg 75%
03:00 +8°C° 0.2 mm 0 mps 602 mmHg 78%
04:00 +8°C° 0 mm 0 mps 602 mmHg 80%
05:00 +8°C° 0 mm 0 mps 601 mmHg 82%
06:00 +7°C° 0 mm 0 mps 601 mmHg 84%
07:00 +9°C° 0 mm 0 mps 602 mmHg 77%
08:00 +11°C° 0 mm 1 mps 602 mmHg 70%
09:00 +12°C° 0 mm 1 mps 603 mmHg 63%
10:00 +13°C° 0.1 mm 1 mps 603 mmHg 59%
11:00 +14°C° 0.1 mm 2 mps 603 mmHg 55%
12:00 +15°C° 0.1 mm 2 mps 603 mmHg 50%
13:00 +16°C° 0.1 mm 2 mps 603 mmHg 49%
14:00 +16°C° 0.1 mm 2 mps 603 mmHg 47%
15:00 +17°C° 0.1 mm 3 mps 603 mmHg 45%
16:00 +15°C° 0.2 mm 2 mps 602 mmHg 49%
17:00 +14°C° 0.2 mm 2 mps 602 mmHg 54%
18:00 +13°C° 0.2 mm 1 mps 601 mmHg 59%
19:00 +13°C° 0.2 mm 1 mps 602 mmHg 60%
20:00 +13°C° 0.2 mm 1 mps 602 mmHg 62%
21:00 +11°C° 0.2 mm 0 mps 602 mmHg 64%
22:00 +12°C° 0 mm 1 mps 602 mmHg 65%
23:00 +11°C° 0 mm 1 mps 602 mmHg 65%

6 October, Tuesday

Time Temperature Precipitation Wind Pressure Humidity
00:00 +11°C° 0 mm 1 mps 602 mmHg 66%
01:00 +10°C° 0 mm 1 mps 601 mmHg 67%
02:00 +10°C° 0 mm 1 mps 601 mmHg 69%
03:00 +9°C° 0 mm 1 mps 601 mmHg 71%
04:00 +9°C° 0 mm 1 mps 601 mmHg 73%
05:00 +7°C° 0 mm 0 mps 601 mmHg 75%
06:00 +7°C° 0 mm 0 mps 601 mmHg 77%
07:00 +9°C° 0 mm 1 mps 601 mmHg 72%
08:00 +10°C° 0 mm 1 mps 602 mmHg 67%
09:00 +10°C° 0 mm 2 mps 602 mmHg 62%
10:00 +12°C° 0 mm 2 mps 602 mmHg 59%
11:00 +12°C° 0 mm 3 mps 602 mmHg 56%
12:00 +13°C° 0 mm 3 mps 602 mmHg 53%
13:00 +13°C° 0.2 mm 3 mps 602 mmHg 53%
14:00 +13°C° 0.2 mm 3 mps 602 mmHg 53%
15:00 +13°C° 0.2 mm 3 mps 602 mmHg 54%
16:00 +12°C° 0.2 mm 3 mps 602 mmHg 57%
17:00 +11°C° 0.2 mm 3 mps 601 mmHg 60%
18:00 +11°C° 0.2 mm 3 mps 601 mmHg 63%
19:00 +10°C° 0.2 mm 2 mps 601 mmHg 67%
20:00 +9°C° 0.2 mm 2 mps 601 mmHg 70%
21:00 +10°C° 0.2 mm 1 mps 601 mmHg 74%
22:00 +9°C° 0.2 mm 1 mps 601 mmHg 76%
23:00 +8°C° 0.2 mm 2 mps 601 mmHg 77%
Show more

We Need Your Consent

Meteoprog and our Service Providers may store and access personal data such as cookies, device identifiers or other similar technologies on your device and process such data to personalise content and ads, as well as provide social media features and to analyse the traffic.

  • Store and/or access information on your device

    Cookies, device identifiers or other information can be stored or accessed on your device for the purposes indicated above.

  • Personalised ads and content, ad and content measurement, audience insights, and products development

    Ads and content can be personalised based on a profile. More data can be added to better personalise ads and content. Ad and content performance can be measured. Insights about the audience who saw the ads and content can be derived. Such data can be used to develop or improve user’s experience, systems and software.

By clicking ‘I Agree’ you will allow the use of indicated cookies, device identifiers, web beacons or other similar technologies. Your settings can be changed in the browser on your device.

For certain purposes, legitimate interests may be relied on, rather than consent. You can read more about this in our Privacy and Cookie Policy.